Location: Unspecified
(0.0000°N, 0.0000°E)
Time: 01:26:33

Hubble Space Telescope - Pass Details

Date: 12 March 2018
Orbit: 537 x 541 km, 28.5° (Epoch: 18 March)

Event Time Altitude Azimuth Distance (km) Brightness Sun altitude
Exits shadow 04:21:24 15° 165° (SSE) 1,471 3.2 -27.1°
Drops below altitude 10° 04:22:28 10° 154° (SSE) 1,783 3.7 -26.8°
Sets 04:25:03 0° 140° (SE) 2,675 4.9 -26.2°
